Location: Fleischmann Planetarium and Science Center
(39.5456°N, 119.8190°W)
Time: 01:29:07
(UTC-07:00)

Daily predictions for brighter satellites

Satellite Brightness Start Highest point End
(mag) Time Altitude Azimuth Time Altitude Azimuth Time Altitude Azimuth
SL-16 R/B 2.1 00:01:33 10° NNW 00:07:15 81° ENE 00:07:17 81° ENE
Terra 3.8 00:08:56 19° W 00:09:02 19° W 00:12:22 10° NW
Cosmos 1331 Rocket 4.2 00:08:05 10° NNW 00:12:41 64° WNW 00:12:41 64° WNW
Cosmos 1821 Rocket 4.2 00:09:02 10° NNW 00:15:12 60° W 00:15:56 56° WSW
Cosmos 1110 Rocket 4.4 00:11:07 10° NNW 00:15:44 54° WNW 00:15:44 54° WNW
Cosmos 972 Rocket 4.4 00:14:54 10° NNW 00:19:15 54° WNW 00:19:15 54° WNW
CZ-2C R/B 3.2 00:20:17 73° ENE 00:20:17 73° ENE 00:25:53 10° N
ALOS 2 3.4 00:21:51 48° NNE 00:21:51 48° NNE 00:25:09 10° N
Cosmos 1302 Rocket 4.1 00:16:30 10° NNW 00:21:23 72° NNE 00:21:23 72° NNE
Cosmos 1339 Rocket 4.4 00:26:58 72° ESE 00:27:11 73° E 00:33:31 10° N
Cosmos 1953 4.4 00:24:19 10° NW 00:26:33 21° WNW 00:26:33 21° WNW
ISS -0.4 00:26:37 10° N 00:27:44 11° N 00:28:51 10° NNE
Cosmos 1727 Rocket 3.8 00:28:15 77° ESE 00:28:26 78° E 00:34:42 10° N
Cosmos 2322 4.4 00:27:17 10° N 00:32:42 44° ENE 00:33:14 43° ENE
SeaSat 1 2.7 00:33:27 65° NNE 00:33:27 65° NNE 00:37:54 10° NNW
Lacrosse 5 2.4 00:36:00 55° NW 00:36:05 55° NW 00:41:04 10° NE
Cosmos 1833 4.3 00:38:11 69° ENE 00:38:11 69° ENE 00:43:17 10° NNE
Cosmos 1605 Rocket 3.9 00:31:55 10° N 00:38:00 74° W 00:38:09 74° WSW
Cosmos-2242 4.4 00:35:18 10° NNW 00:38:03 33° NW 00:38:03 33° NW
USA 267 3.4 00:33:35 10° NE 00:40:05 72° NW 00:42:34 40° WSW
Meteor 2-15 4.3 00:40:21 86° SW 00:40:28 87° W 00:46:34 10° N
Cosmos 2251 Rocket 4.5 00:42:35 38° W 00:43:09 39° WNW 00:48:13 10° N
Cosmos 2219 4.4 00:46:23 30° E 00:46:23 30° E 00:50:18 10° NE
Meteor 2-5 Rocket 4.0 00:45:11 61° W 00:45:27 62° WNW 00:51:22 10° N
Cosmos 2360 Rocket 2.3 00:40:44 10° NNW 00:46:21 68° ENE 00:46:21 68° ENE
Cosmos 1980 Rocket 4.3 00:43:44 10° WNW 00:46:23 15° W 00:46:23 15° W
CZ-4B R/B 4.3 00:50:23 14° NNE 00:50:23 14° NNE 00:51:04 10° NNE
COSMOS 2428 3.9 00:45:20 10° N 00:50:33 34° ENE 00:51:53 31° E
Cosmos 1153 Rocket 4.3 00:45:23 10° N 00:51:38 85° W 00:51:52 83° SW
NOSS 3-1 (C) 4.2 00:45:20 10° NW 00:52:54 58° WSW 00:53:44 55° SW
Lacrosse 5 rocket 2.8 00:48:37 10° NW 00:51:29 38° NW 00:51:29 38° NW
Cosmos 2098 Rocket 4.1 00:48:43 10° NNW 00:52:54 52° WNW 00:52:54 52° WNW
Cosmos 2173 Rocket 4.2 00:48:11 10° N 00:54:11 56° E 00:54:32 56° E
Cosmos 2322 Rocket 3.2 00:53:29 10° NW 00:57:49 35° W 00:57:49 35° W
Cosmos 2221 3.8 00:56:52 10° N 00:59:51 38° NNE 00:59:51 38° NNE
Meteor 2-15 Rocket 4.4 01:03:10 68° W 01:03:22 69° W 01:09:26 10° N
USA 234 3.9 01:08:35 17° ESE 01:13:34 54° NE 01:19:54 10° NW
Geosat 4.2 01:08:52 10° NNE 01:13:13 67° NNE 01:13:13 67° NNE
Cosmos 1459 Rocket 3.9 01:09:10 10° N 01:15:34 86° E 01:15:58 80° SSE
CZ-2C R/B 3.7 01:10:35 10° N 01:15:39 36° WNW 01:16:13 35° W
Meteor 1-24 Rocket 4.3 01:20:52 50° W 01:21:11 51° WNW 01:27:04 10° N
Cosmos 2333 Rocket 3.8 01:17:45 10° N 01:22:44 30° ENE 01:25:16 21° E
Cosmos 1674 4.5 01:25:30 31° NNE 01:25:30 31° NNE 01:27:40 10° NNE
ATLAS 2AS CENTAUR R/B 3.6 01:18:27 10° NNW 01:26:19 53° NE 01:31:13 22° ESE
NOSS 3-1 (A) 4.4 01:18:55 10° NW 01:26:20 48° WSW 01:26:41 47° WSW
Cosmos 2297 Rocket 4.0 01:27:30 18° E 01:27:30 18° E 01:31:11 10° ENE
Cosmos 2219 Rocket 3.2 01:24:04 10° N 01:29:25 40° ENE 01:31:02 33° E
NOSS 3-3 (A) 4.3 01:33:08 52° ESE 01:33:08 52° ESE 01:39:19 10° NE
NOSS 3-3 (C) 4.3 01:33:15 51° ESE 01:33:15 51° ESE 01:39:24 10° NE
Cosmos 1726 4.2 01:31:46 10° NNE 01:34:01 24° NE 01:34:01 24° NE
Cosmos 1802 Rocket 3.8 01:30:06 10° N 01:36:22 78° W 01:36:39 76° SW
Cosmos 2016 Rocket 3.8 01:32:29 10° N 01:38:54 88° W 01:39:27 76° S
Meteor 2-17 Rocket 4.4 01:33:37 10° NNW 01:39:39 65° W 01:39:46 65° W
Cosmos 2100 Rocket 4.1 01:34:00 10° NNW 01:40:01 56° W 01:40:07 56° W
SL-8 R/B 4.1 01:47:52 59° N 01:47:52 59° N 01:52:17 10° NE
Cosmos 1300 4.5 01:44:15 10° NNE 01:46:53 29° NE 01:46:53 29° NE
Cosmos 2237 Rocket 3.6 01:44:11 10° N 01:49:16 33° ENE 01:52:19 20° ESE
SL-16 R/B 4.5 01:48:19 10° WNW 01:49:08 11° W 01:49:08 11° W
Cosmos 1954 Rocket 4.3 01:58:07 55° E 01:58:07 55° E 02:03:08 10° NNE
Cosmos 407 Rocket 3.5 01:58:47 76° NW 01:58:47 76° NW 02:03:44 10° NNE
Cosmos 2061 Rocket 4.4 01:53:31 10° NNW 01:59:25 47° W 01:59:38 46° W
Helios 1A Rocket 3.9 01:55:44 10° NNE 01:58:56 42° ENE 01:58:56 42° ENE
ATLAS 3B CENTAUR R/B 4.5 01:35:34 10° WSW 02:00:24 51° S 02:09:33 10° ESE
H-2A R/B 3.3 01:56:50 10° N 02:00:16 49° NNW 02:00:16 49° NNW
Resurs 1-4 Rocket 4.4 02:00:12 10° ENE 02:02:39 13° E 02:04:44 11° ESE
Cosmos 2228 Rocket 3.6 01:59:24 10° N 02:03:32 57° ENE 02:03:32 57° ENE
Cosmos 2227 Rocket 2.6 02:04:40 49° ESE 02:04:59 50° ESE 02:10:26 10° NNE
ISS -0.9 02:02:08 10° NW 02:02:45 14° NNW 02:02:45 14° NNW
Cosmos 2123 Rocket 3.9 02:04:52 65° WSW 02:05:31 71° W 02:11:43 10° N
Cosmos 2058 4.4 02:08:23 29° E 02:08:23 29° E 02:11:40 10° NNE
Cosmos 676 Rocket 3.9 02:16:11 79° W 02:16:20 81° WNW 02:21:39 10° NNE
Cosmos 2233 Rocket 3.9 02:13:18 10° N 02:19:40 84° E 02:21:09 56° SSE
Cosmos 1328 4.5 02:20:46 52° N 02:20:46 52° N 02:23:52 10° N
Lacrosse 5 4.5 02:16:56 10° WNW 02:20:04 16° NNW 02:23:11 10° NNE
ERBS 4.3 02:24:04 26° N 02:24:04 26° N 02:26:17 10° NNE
CZ-2D R/B 4.0 02:20:47 10° NE 02:24:39 21° E 02:26:43 17° ESE
Cosmos 2219 4.2 02:28:18 31° W 02:29:25 34° WNW 02:34:31 10° N
Cosmos 2360 Rocket 4.2 02:26:32 10° WNW 02:28:06 14° WNW 02:28:06 14° WNW
Cosmos 1455 4.2 02:26:59 10° NNE 02:30:08 23° ENE 02:31:12 20° E
Cosmos 1500 Rocket 3.6 02:31:56 80° N 02:31:56 80° N 02:36:08 10° N
Cosmos 1725 Rocket 4.4 02:28:05 10° NNW 02:34:05 46° W 02:34:48 44° WSW
COSMOS 2428 3.7 02:29:39 10° NW 02:33:53 32° W 02:33:53 32° W
NOSS 0 Rocket 3.8 02:28:34 10° NNW 02:34:47 79° WSW 02:36:22 52° S
Cosmos 2082 3.6 02:35:30 63° S 02:36:22 78° ESE 02:42:01 10° NNE
PSLV R/B 4.2 02:37:10 58° NW 02:37:10 58° NW 02:40:33 10° NNW
SL-08 R/B 3.9 02:36:01 40° SE 02:37:33 58° ENE 02:42:25 10° N
Lacrosse 4 Rocket 3.3 02:39:11 19° ESE 02:39:24 20° ESE 02:42:25 10° ENE
AQUA 4.1 02:39:19 10° NNE 02:44:01 59° E 02:44:46 52° SE
Cosmos 1626 2.7 02:44:25 55° ENE 02:44:25 55° ENE 02:47:45 10° NNE
Meteor 2-12 Rocket 4.3 02:41:39 10° N 02:47:47 78° W 02:49:32 49° S
Cosmos 1900 4.2 02:50:25 69° SSW 02:51:02 86° ESE 02:56:03 10° NNE
Meteor 1-11 4.2 02:51:39 54° SSW 02:52:58 76° W 02:58:45 10° N
Cosmos 1515 Rocket 4.0 02:48:51 10° NNW 02:52:40 47° WNW 02:52:40 47° WNW
Cosmos 1464 Rocket 4.2 02:47:31 10° N 02:53:39 68° E 02:56:56 29° SSE
Cosmos 1743 Rocket 4.4 02:53:53 36° WNW 02:53:53 36° WNW 02:57:49 10° N
Meteor 1-27 4.2 02:50:01 10° N 02:55:52 82° W 02:57:46 45° S
USA 234 3.5 02:55:51 43° SSW 02:56:36 45° SW 03:02:50 10° WNW
DELTA 2 R/B (1) 3.5 02:55:50 56° SW 02:56:47 68° SSE 03:02:19 10° E
Cosmos 614 Rocket 4.1 02:58:43 52° WSW 02:59:42 62° WNW 03:04:54 10° NNE
IRS-1D 4.3 02:56:28 10° NNE 03:01:37 47° E 03:03:55 29° SSE
Aureole 2 Rocket 3.3 02:58:28 10° NNW 03:01:49 49° WNW 03:01:49 49° WNW
Cosmos 1703 3.2 03:03:03 75° WNW 03:03:03 75° WNW 03:06:54 10° N
ADEOS Rocket 3.7 02:55:26 10° NNE 03:02:59 68° ESE 03:07:32 28° S
Cosmos 1140 Rocket 4.0 03:02:03 41° W 03:03:04 46° WNW 03:08:05 10° N
IRS-P3 4.2 02:58:27 10° N 03:03:44 67° WNW 03:05:05 48° SW
Cosmos 2151 3.4 03:04:57 45° WNW 03:04:57 45° WNW 03:08:59 10° N
Cosmos 2333 Rocket 2.7 03:01:48 10° NW 03:07:03 39° WSW 03:07:13 38° WSW
NOSS 2-1 (D) 4.3 03:09:35 33° WNW 03:10:08 35° NW 03:14:03 10° NNE
NOSS 2-1 (C) 4.3 03:09:44 34° WNW 03:10:16 35° NW 03:14:12 10° NNE
Cosmos 2297 Rocket 2.4 03:09:18 42° WSW 03:10:59 59° WNW 03:16:35 10° NNE
Cosmos 2219 Rocket 3.2 03:08:25 10° NW 03:12:43 27° W 03:12:43 27° W
Sich 1 3.8 03:11:32 31° SSE 03:13:12 47° E 03:17:24 10° NNE
Cosmos 1633 Rocket 4.1 03:11:33 25° SE 03:13:30 39° E 03:17:34 10° NNE
Cosmos 1356 3.4 03:14:42 75° NW 03:14:42 75° NW 03:18:06 10° N
Cosmos 1980 4.0 03:09:25 10° NW 03:14:48 44° WSW 03:15:42 41° SW
ATLAS 2AS CENTAUR R/B 3.4 03:10:03 10° NW 03:17:01 36° WSW 03:18:33 33° SW
NOSS 3-4 (A) 4.4 03:11:11 10° NNW 03:18:08 59° NE 03:25:31 10° SE
NOSS 3-4 (C) 4.4 03:11:17 10° NNW 03:18:14 58° NE 03:25:37 10° SE
Cosmos 1850 Rocket 4.2 03:16:51 43° WSW 03:18:17 58° WNW 03:23:25 10° N
Cosmos 1151 Rocket 4.1 03:21:16 10° NNW 03:24:47 28° W 03:24:47 28° W
Cosmos 1741 Rocket 4.4 03:23:32 38° WSW 03:25:14 53° WNW 03:30:28 10° N
UNKNOWN OBJECT B 4.2 03:22:32 10° NNE 03:26:10 32° E 03:28:17 19° SSE
NPP 4.2 03:21:25 10° N 03:26:32 45° WNW 03:28:22 33° WSW
BREEZE-M DEB (TANK) 4.4 03:15:35 10° WSW 03:27:19 59° NNW 03:31:10 10° ENE
SL-16 R/B 2.4 03:28:29 19° S 03:33:01 78° WSW 03:39:15 10° NNW
Cosmos 2237 Rocket 2.8 03:28:16 10° NW 03:33:15 33° WSW 03:34:04 32° WSW
ATLAS 5 CENTAUR R/B 4.0 03:31:21 10° SSE 03:34:15 16° ESE 03:37:14 10° ENE
SL-16 R/B 2.1 03:29:33 10° NNW 03:35:15 80° WSW 03:40:55 10° SSE
ADEOS 3.5 03:32:39 10° NNE 03:37:54 88° WNW 03:40:42 29° SSW
Cosmos 1570 Rocket 4.4 03:37:45 10° NNW 03:42:50 45° WSW 03:45:04 29° SSW
Resurs 1-4 Rocket 2.1 03:37:41 10° N 03:42:59 72° WNW 03:45:49 28° SSW
ARIANE 5 R/B 2.5 03:41:24 10° N 03:46:28 72° WNW 03:49:08 28° SSW
ADEOS II 4.3 03:45:04 10° NE 03:48:57 21° E 03:52:48 10° SE
Cosmos 2227 Rocket 3.7 03:46:29 17° W 03:49:18 24° NW 03:53:50 10° N
Cosmos 2034 Rocket 4.2 03:46:21 10° NNW 03:52:33 56° W 03:57:03 19° SSW
UNK 4.0 03:51:16 28° SSW 03:53:17 47° W 03:57:45 10° NNW
Cosmos 1707 Rocket 3.7 03:49:28 10° NNW 03:53:44 52° W 03:55:50 27° SSW
COBE Rocket 4.2 03:52:02 10° N 03:56:28 44° WNW 03:58:37 26° SW
CZ-3B DEB 4.5 03:46:15 21° SW 03:57:14 82° NW 04:11:24 10° NE
Cosmos 2242 Rocket 3.6 03:57:16 10° N 04:01:48 86° E 04:06:19 10° S
USA 161 2.7 04:00:37 14° SE 04:01:53 26° ENE 04:03:35 10° NNE
MOZ.5/SAFIR/RUBIN 5/SL-8 3.8 03:57:57 10° SSE 04:02:43 87° ENE 04:07:32 10° NNW
Cosmos 1933 4.1 03:59:54 10° N 04:03:56 54° E 04:07:57 10° SSE
CZ-2D R/B 2.6 03:59:57 10° N 04:04:55 46° WNW 04:08:02 21° SW
OAO 3 Rocket 4.4 04:02:58 21° SSW 04:05:01 29° SSE 04:09:15 10° E
Cosmos 1455 3.6 04:02:43 10° NW 04:05:41 21° W 04:06:10 21° W
Cosmos 1666 Rocket 4.2 04:05:15 25° SW 04:07:16 39° WNW 04:11:29 10° N
Cosmos 2263 Rocket 3.8 04:03:37 10° SSE 04:08:21 30° ESE 04:13:07 10° NE
GPS 2-04 Rocket1 4.3 04:10:37 19° SSW 04:10:37 19° SSW 04:13:02 10° SSE
Tsikada Rocket 4.3 04:06:24 20° SSW 04:10:47 51° W 04:17:02 10° N
Cosmos 1862 Rocket 3.8 04:08:29 10° N 04:12:49 71° E 04:17:07 10° SSE
Meteor 2-10 Rocket 3.8 04:10:29 10° N 04:15:29 66° E 04:20:30 10° SSE
Cosmos 1486 Rocket 4.0 04:11:42 17° SSW 04:15:48 87° WNW 04:21:03 10° NNE
Cosmos 1933 Rocket 3.6 04:13:13 14° S 04:17:06 88° W 04:21:35 10° N
Lacrosse 4 Rocket 2.4 04:15:32 19° WSW 04:17:50 34° WNW 04:21:43 10° N
Cosmos 1400 Rocket 3.2 04:14:14 10° S 04:18:03 60° E 04:21:59 10° NNE
ORS 1 (USA 231) 4.4 04:16:24 22° W 04:18:16 89° N 04:21:21 10° E
In-Cosmos 22 Rocket 4.2 04:15:37 10° S 04:20:55 77° E 04:26:14 10° NNE
Cosmos 841 Rocket 3.8 04:15:59 10° NNW 04:21:17 72° ENE 04:26:31 10° SSE
Cosmos 468 Rocket 4.5 04:25:11 10° NW 04:29:57 38° WSW 04:34:41 10° S
Cosmos 371 Rocket 3.2 04:25:35 10° NNW 04:30:22 68° WSW 04:35:07 10° S
BREEZE-M DEB 3.9 04:27:39 10° W 04:30:48 23° NNW 04:32:41 10° NNE
Meteor 1-26 Rocket 4.4 04:31:20 10° N 04:37:06 80° E 04:42:42 10° SSE
DELTA 2 R/B (1) 3.6 04:37:38 10° W 04:43:14 88° N 04:48:48 10° E
RESURS DK-1 4.1 04:39:44 10° N 04:43:38 38° ENE 04:47:31 10° SE
CZ-2D R/B 4.4 04:40:48 10° N 04:44:27 32° WNW 04:47:59 11° SW
ATLAS 3B CENTAUR R/B 3.8 04:34:32 10° W 04:44:38 28° SSW 04:49:24 10° SSE
USA 102 2.4 04:42:34 10° NNE 04:45:51 79° WNW 04:47:00 18° SSW
Okean O Rocket 2.0 04:42:55 10° NNE 04:47:15 65° E 04:51:33 10° S
GP-B 3.1 04:45:31 10° N 04:49:57 77° W 04:54:23 10° S
Cosmos 1763 Rocket 3.7 04:45:27 10° NNW 04:50:28 47° WSW 04:55:23 10° S
Cosmos 2285 Rocket 4.0 04:44:19 10° NNW 04:50:38 77° WSW 04:56:55 10° S
Cosmos 1470 Rocket 4.5 04:48:13 10° SW 04:51:59 30° WNW 04:55:50 10° NNW
CZ-4B R/B 3.2 04:48:12 10° NNE 04:52:36 80° ESE 04:56:46 10° S
Cosmos 1818 3.7 04:47:31 10° NNW 04:53:00 83° ENE 04:58:24 10° SSE
Cosmos 1503 Rocket 4.0 04:49:45 10° SSW 04:55:02 76° WNW 05:00:19 10° NNE
PSLV R/B 3.8 04:53:16 10° N 04:57:16 71° WNW 05:01:09 10° SSW
Cosmos 1634 Rocket 4.4 04:52:12 10° NNW 04:57:58 43° W 05:03:42 10° SSW
Cosmos 1603 4.0 04:52:43 10° NW 04:58:10 46° WSW 05:03:30 10° S
Cosmos 2279 Rocket 4.0 04:52:08 10° N 04:58:20 75° W 05:04:32 10° S
Abrixas rocket 3.6 04:57:56 10° SSW 05:00:52 30° SE 05:03:50 10° ENE
Cosmos 304 Rocket 4.0 04:58:25 10° NNW 05:03:15 78° ENE 05:08:03 10° SSE
Cosmos 1869 Rocket 3.7 04:59:14 10° S 05:03:42 82° E 05:08:11 10° N
